Content
SEND FEEDBACK

Daily
Averages
Monthly
Summary
United States of America

FAYETTEVILLE, TENNESSEE


Home > North America > United States > Tennessee
Elevation: 700 feet     Latitude: 35 10N     Longitude: 086 33W

WEATHER
 
SELECT A DAY
Number of Records: 306,010;   Date Range: 4/22/02 - 10/28/14
 
SHARE

PRINT THIS DATA

[ ← Previous Day ]
WEATHER ALMANAC - JANUARY 20, 2014
[ Next Day → ]
[ °C ]   °F
Weather ElementAverageHighLow
Temperature45 °F60.8 °F (1:55 pm)28.4 °F (4:35 am)
Dewpoint22 °F28.4 °F (10:55 pm)15.8 °F (3:35 pm)
Humidity44.9 %80 % (4:15 am)17 % (3:35 pm)
Barometer29.95 in30.03 in (3:35 am)29.84 in (11:35 pm)
Wind Speed0.8 mph10.4 mph (12:35 am)
Weather ElementAverage
Visibility10 mi
Wind DirectionNNE (19.7 °)

Weather ElementTotal
Precipitation---
Heating Degree Days20.4 (Base 65)
Averaged from 70 records on January 20, 2014
WEATHER CONDITIONS BREAKOUT
WIND DIRECTION BREAKOUT
WEATHER BY HOUR - JANUARY 20, 2014
[ °C ]   °F
Local TimeTemperatureDewpointHumidityBarometerVisibilityWind DirectionWind SpeedGust SpeedPrecipitationEventsConditions
12:35 AM35.6 °F23.0 °F60 %30.02 in10.0 miSSW (200°)10.4 mphClear
12:55 AM35.6 °F23.0 °F60 %30.01 in10.0 miCalmClear
1:15 AM35.6 °F23.0 °F60 %30.02 in10.0 miCalmClear
1:35 AM35.6 °F23.0 °F60 %30.01 in10.0 miCalmClear
1:55 AM37.4 °F23.0 °F56 %30.01 in10.0 miCalmClear
2:15 AM35.6 °F23.0 °F60 %30.00 in10.0 miCalmClear
2:35 AM33.8 °F23.0 °F65 %30.01 in10.0 miCalmClear
2:55 AM35.6 °F21.2 °F56 %30.02 in10.0 miCalmClear
3:15 AM33.8 °F23.0 °F65 %30.02 in10.0 miCalmClear
3:35 AM30.2 °F23.0 °F75 %30.03 in10.0 miCalmClear
3:55 AM30.2 °F23.0 °F75 %30.02 in10.0 miCalmClear
4:15 AM30.2 °F24.8 °F80 %30.02 in10.0 miCalmClear
4:35 AM28.4 °F21.2 °F74 %30.02 in10.0 miCalmClear
4:55 AM30.2 °F23.0 °F75 %30.01 in10.0 miCalmClear
5:15 AM30.2 °F24.8 °F80 %30.00 in10.0 miCalmClear
5:35 AM33.8 °F23.0 °F65 %29.99 in10.0 miCalmClear
5:55 AM33.8 °F23.0 °F65 %30.00 in10.0 miCalmClear
6:15 AM35.6 °F23.0 °F60 %29.99 in10.0 miCalmClear
6:35 AM33.8 °F23.0 °F65 %29.99 in10.0 miCalmClear
6:55 AM32.0 °F23.0 °F69 %29.99 in10.0 miCalmClear
7:15 AM33.8 °F23.0 °F65 %29.99 in10.0 miCalmClear
7:35 AM37.4 °F23.0 °F56 %30.00 in10.0 miCalmClear
7:55 AM39.2 °F23.0 °F52 %30.01 in10.0 miCalmClear
8:15 AM41.0 °F23.0 °F49 %30.01 in10.0 miCalmClear
8:35 AM42.8 °F23.0 °F46 %30.01 in10.0 miCalmClear
8:55 AM44.6 °F21.2 °F39 %30.02 in10.0 miCalmClear
9:15 AM46.4 °F21.2 °F37 %30.02 in10.0 miCalmClear
9:35 AM46.4 °F21.2 °F37 %30.03 in10.0 miCalmClear
9:55 AM48.2 °F21.2 °F34 %30.03 in10.0 miCalmClear
10:15 AM50.0 °F19.4 °F30 %30.03 in10.0 miCalmClear
10:35 AM51.8 °F19.4 °F28 %30.02 in10.0 miCalmClear
10:55 AM51.8 °F19.4 °F28 %30.01 in10.0 miCalmClear
11:15 AM53.6 °F19.4 °F26 %30.00 in10.0 miCalmClear
11:35 AM53.6 °F19.4 °F26 %29.98 in10.0 miCalmClear
11:55 AM55.4 °F19.4 °F25 %29.97 in10.0 miCalmClear
12:15 PM55.4 °F19.4 °F25 %29.95 in10.0 miCalmClear
12:35 PM55.4 °F19.4 °F25 %29.94 in10.0 miCalmClear
12:55 PM57.2 °F19.4 °F23 %29.94 in10.0 miWSW (250°)9.2 mphClear
1:15 PM59.0 °F19.4 °F22 %29.92 in10.0 miCalmClear
1:35 PM59.0 °F19.4 °F22 %29.92 in10.0 miSW (230°)6.9 mphClear
1:55 PM60.8 °F17.6 °F19 %29.91 in10.0 miSW (230°)10.4 mphClear
2:15 PM60.8 °F17.6 °F19 %29.90 in10.0 miSW (230°)9.2 mphClear
2:35 PM60.8 °F17.6 °F19 %29.89 in10.0 miWSW (240°)9.2 mphClear
2:55 PM60.8 °F17.6 °F19 %29.88 in10.0 miCalmClear
3:15 PM60.8 °F17.6 °F19 %29.88 in10.0 miCalmClear
3:35 PM60.8 °F15.8 °F17 %29.88 in10.0 miCalmClear
3:55 PM60.8 °F17.6 °F19 %29.88 in10.0 miCalmClear
4:15 PM60.8 °F17.6 °F19 %29.88 in10.0 miCalmClear
4:35 PM59.0 °F19.4 °F22 %29.88 in10.0 miCalmClear
4:55 PM55.4 °F19.4 °F25 %29.88 in10.0 miCalmClear
5:15 PM51.8 °F21.2 °F30 %29.88 in10.0 miCalmClear
5:35 PM51.8 °F21.2 °F30 %29.88 in10.0 miCalmClear
5:55 PM50.0 °F23.0 °F35 %29.89 in10.0 miCalmClear
6:15 PM50.0 °F23.0 °F35 %29.89 in10.0 miCalmClear
6:35 PM48.2 °F23.0 °F37 %29.89 in10.0 miCalmClear
6:55 PM48.2 °F24.8 °F40 %29.89 in10.0 miCalmClear
7:15 PM46.4 °F23.0 °F40 %29.89 in10.0 miCalmClear
7:35 PM44.6 °F24.8 °F46 %29.89 in10.0 miCalmClear
7:55 PM46.4 °F24.8 °F43 %29.89 in10.0 miCalmClear
8:35 PM44.6 °F24.8 °F46 %29.88 in10.0 miCalmClear
8:55 PM44.6 °F23.0 °F43 %29.88 in10.0 miCalmClear
9:15 PM46.4 °F23.0 °F40 %29.88 in10.0 miCalmClear
9:35 PM46.4 °F23.0 °F40 %29.87 in10.0 miCalmClear
9:55 PM44.6 °F23.0 °F43 %29.88 in10.0 miCalmClear
10:15 PM44.6 °F23.0 °F43 %29.88 in10.0 miCalmClear
10:35 PM41.0 °F26.6 °F57 %29.87 in10.0 miCalmClear
10:55 PM37.4 °F28.4 °F70 %29.87 in10.0 miCalmClear
11:15 PM35.6 °F28.4 °F75 %29.86 in10.0 miCalmScattered Clouds
11:35 PM35.6 °F28.4 °F75 %29.84 in10.0 miCalmMostly Cloudy
11:55 PM41.0 °F28.4 °F61 %29.84 in10.0 miCalmMostly Cloudy
Hourly data recorded from KMDQ, located miles away from Fayetteville, Tennessee







STORIES FROM OUR PARTNERS